Kahului, HI

4:26 AM HST on October 01, 2016 (GMT -1000)
Kahului

Weather History for PHOG - April, 2012

Change the Weather History Date:

Thursday, April 5, 2012

  Actual Average Record
Temperature  
Mean Temperature 74 °F 74 °F  
Max Temperature 81 °F 82 °F 88 °F (1951)
Min Temperature 67 °F 66 °F 57 °F (2007)
Degree Days  
Heating Degree Days 0 0  
Month to date heating degree days 0 0  
Since 1 July heating degree days 0 0  
Cooling Degree Days 9 9  
Month to date cooling degree days 43 45  
Year to date cooling degree days 753 699  
Growing Degree Days 23 (Base 50)    
Moisture  
Dew Point 60 °F    
Average Humidity 63    
Maximum Humidity 81    
Minimum Humidity 45    
Precipitation  
Precipitation 0.00 in 0.06 in 1.95 in (1989)
Month to date precipitation 0.00 0.35  
Year to date precipitation 2.69 7.56  
Snow  
Snow 0.00 in - - ()
Month to date snowfall 0.0  
Since 1 July snowfall 0.0  
Snow Depth 0.00 in    
Sea Level Pressure  
Sea Level Pressure 30.03 in    
Wind  
Wind Speed 11 mph (ENE)    
Max Wind Speed 24 mph    
Max Gust Speed 32 mph    
Visibility 10 miles    
Events      
T = Trace of Precipitation, MM = Missing Value Source: NWS Daily Summary

Daily Weather History Graph

Daily Weather History Graph

Search for Another Location

Airport or City:

Trip Planner

Search our weather history database for the weather conditions in past years. The results will help you decide how hot, cold, wet, or windy it might be!

Date:

Astronomy

Apr. 05, 2012 Rise Set
Actual Time 6:14 AM HST 6:41 PM HST
Civil Twilight 5:52 AM HST 7:04 PM HST
Nautical Twilight 5:26 AM HST 7:30 PM HST
Astronomical Twilight 5:00 AM HST 7:56 PM HST
Moon 6:00 PM HST (4/5) 5:13 AM HST (4/5)
Length of Visible Light 13h 11m
Length of Day
12h 27m
Waxing Gibbous, 99% of the Moon is Illuminated
Apr 5
Waxing Gibbous
Apr 6
Full
Apr 13
Last Quarter
Apr 20
New
Apr 28
First Quarter

Hourly Weather History & Observations

Time (HST) Temp. Heat Index Dew Point Humidity Pressure Visibility Wind Dir Wind Speed Gust Speed Precip Events Conditions
12:54 AM 70.0 °F - 62.1 °F 76% 30.04 in 10.0 mi ESE 4.6 mph - N/A   Mostly Cloudy
1:54 AM 66.9 °F - 61.0 °F 81% 30.02 in 10.0 mi Calm Calm - N/A   Clear
2:54 AM 69.1 °F - 61.0 °F 75% 30.00 in 10.0 mi Variable 4.6 mph - N/A   Mostly Cloudy
3:54 AM 70.0 °F - 60.1 °F 71% 29.99 in 10.0 mi ENE 8.1 mph 20.7 mph N/A   Clear
4:54 AM 71.1 °F - 57.9 °F 63% 29.99 in 10.0 mi ENE 11.5 mph 17.3 mph N/A   Clear
5:54 AM 69.1 °F - 57.9 °F 68% 30.01 in 10.0 mi SE 6.9 mph - N/A   Clear
6:54 AM 68.0 °F - 60.1 °F 76% 30.03 in 10.0 mi Calm Calm - N/A   Partly Cloudy
7:54 AM 73.0 °F - 59.0 °F 61% 30.05 in 10.0 mi ENE 9.2 mph - N/A   Partly Cloudy
8:54 AM 77.0 °F - 59.0 °F 54% 30.06 in 10.0 mi ENE 15.0 mph 21.9 mph N/A   Clear
9:54 AM 79.0 °F - 57.9 °F 48% 30.06 in 10.0 mi NE 17.3 mph 25.3 mph N/A   Clear
10:54 AM 80.1 °F 80.9 °F 60.1 °F 50% 30.04 in 10.0 mi NE 18.4 mph 26.5 mph N/A   Partly Cloudy
11:54 AM 80.1 °F 80.6 °F 57.9 °F 47% 30.03 in 10.0 mi NE 18.4 mph 26.5 mph N/A   Partly Cloudy
12:54 PM 80.1 °F 80.9 °F 60.1 °F 50% 30.01 in 10.0 mi NE 24.2 mph 29.9 mph N/A   Partly Cloudy
1:54 PM 78.1 °F - 62.1 °F 58% 29.99 in 10.0 mi ENE 19.6 mph 26.5 mph N/A   Partly Cloudy
2:54 PM 75.9 °F - 61.0 °F 60% 29.97 in 10.0 mi NE 19.6 mph 28.8 mph N/A   Scattered Clouds
3:54 PM 75.9 °F - 60.1 °F 58% 29.98 in 10.0 mi ENE 16.1 mph 26.5 mph N/A   Clear
4:54 PM 75.0 °F - 60.1 °F 60% 29.98 in 10.0 mi ENE 17.3 mph 25.3 mph N/A   Scattered Clouds
5:54 PM 73.0 °F - 61.0 °F 66% 30.01 in 10.0 mi ENE 15.0 mph 25.3 mph N/A   Scattered Clouds
6:54 PM 73.0 °F - 60.1 °F 64% 30.03 in 10.0 mi ENE 11.5 mph 23.0 mph N/A   Scattered Clouds
7:54 PM 72.0 °F - 60.1 °F 66% 30.06 in 10.0 mi NE 13.8 mph - N/A   Mostly Cloudy
8:54 PM 72.0 °F - 60.1 °F 66% 30.06 in 10.0 mi NE 13.8 mph - N/A   Mostly Cloudy
9:54 PM 71.1 °F - 61.0 °F 70% 30.08 in 10.0 mi ENE 6.9 mph - N/A   Clear
10:54 PM 70.0 °F - 62.1 °F 76% 30.07 in 10.0 mi NE 12.7 mph 19.6 mph N/A   Clear
11:54 PM 70.0 °F - 60.1 °F 71% 30.06 in 10.0 mi ENE 11.5 mph 18.4 mph N/A   Clear